Regional Weather Roundup
Issued by NWS Boston, MA

Current Version | Previous Version | Text Only | Print | Product List | Glossary Off
Versions: 1 2 3 4 5 6 7 8 9 10 11 12 13 14 15 16 17 18 19 20 21 22 23 24 25 26 27 28 29 30 31 32 33 34 35 36 37 38 39 40 41 42 43 44 45 46 47 48 49 50
380 ASUS41 KBOX 290710 RWRBOX REGIONAL WEATHER ROUNDUP NATIONAL WEATHER SERVICE TAUNTON MA 300 AM EDT WED MAR 29 2017 NOTE: "FAIR" INDICATES FEW OR NO CLOUDS BELOW 12,000 FEET WITH NO SIGNIFICANT WEATHER AND/OR OBSTRUCTIONS TO VISIBILITY. MAZALL-290800- EASTERN MASSACHUSETTS CITY SKY/WX TMP DP RH WIND PRES REMARKS BOSTON LGT RAIN 38 37 97 N9 29.94S WCI 31 BEVERLY LGT RAIN 38 37 97 N6 29.93F LAWRENCE CLOUDY 35 35 100 N8 29.96F WCI 29 BEDFORD CLOUDY 37 34 89 N7 29.93F WCI 32 BLUE HILL N/A 35 35 100 N8G18 29.89F WCI 29 NORWOOD CLOUDY 40 38 93 N3 29.93S MARSHFIELD LGT RAIN 39 39 100 VRB6 29.91F PLYMOUTH LGT RAIN 39 37 92 N13 29.90F WCI 31 TAUNTON LGT RAIN 39 37 92 N7 29.90F NEW BEDFORD LGT RAIN 39 38 96 N7 29.88F $$ MAZALL-290800- CAPE COD AND THE ISLANDS CITY SKY/WX TMP DP RH WIND PRES REMARKS FALMOUTH CLOUDY 39 39 100 MISG 29.88F HYANNIS LGT RAIN 40 39 97 N12G22 29.86F CHATHAM LGT RAIN 41 41 100 NE8G17 29.88F FOG PROVINCETOWN LGT RAIN 39 39 100 NE12 29.91F WCI 32 NANTUCKET LGT RAIN 41 39 93 NE15 29.84F FOG MARTHAS VNYRD CLOUDY 41 39 93 N15 29.85F $$ MAZALL-290800- CENTRAL AND WESTERN MASSACHUSETTS CITY SKY/WX TMP DP RH WIND PRES REMARKS WORCESTER FOG 34 33 96 NE9 29.91R VSB 1/4 WCI 27 FITCHBURG CLOUDY 38 36 92 N6 29.95S ORANGE CLOUDY 38 38 100 NW6 29.94R SPRINGFIELD CLOUDY 39 38 96 N6 29.93S WESTFIELD CLOUDY 39 39 100 N5 29.94R NORTH ADAMS CLOUDY 38 37 97 W9 29.98R WCI 31 PITTSFIELD CLOUDY 37 35 92 NW8 29.94R WCI 31 $$ RIZALL-290800- RHODE ISLAND CITY SKY/WX TMP DP RH WIND PRES REMARKS PROVIDENCE LGT RAIN 40 37 89 N8 29.92S NEWPORT LGT RAIN 39 39 100 N12 29.88F WCI 32 BLOCK ISLAND LGT RAIN 39 38 96 N12G20 29.88F WCI 32 SMITHFIELD LGT RAIN 37 36 96 N9 29.91S WCI 30 WESTERLY LGT RAIN 41 39 93 N8 29.90S $$ CTZALL-290800- CONNECTICUT CITY SKY/WX TMP DP RH WIND PRES REMARKS BRADLEY INTL CLOUDY 40 40 100 N3 29.94S HARTFORD CLOUDY 41 39 93 N6 29.95R BRIDGEPORT CLOUDY 45 41 86 CALM 29.94R DANBURY CLOUDY 44 42 93 CALM 29.95R GROTON CLOUDY 40 38 93 N7 29.90S NEW HAVEN CLOUDY 42 40 92 N8 29.93R CHESTER NOT AVBL MERIDEN CLOUDY 42 39 89 N8 29.94R WILLIMANTIC CLOUDY 41 38 89 N6 29.93R OXFORD CLOUDY 41 37 87 N3 29.94R $$ MEZ002-015-021-024-NHZ003-005-008-011-012-014-VTZ005-008-290800- NORTHERN NEW ENGLAND CITY SKY/WX TMP DP RH WIND PRES REMARKS PORTLAND ME CLOUDY 35 33 92 N5 29.97F WCI 31 BANGOR ME FOG 33 33 100 N6 29.99F VSB 1/2 WCI 28 CONCORD NH LGT RAIN 36 34 92 N3 29.96S FOG MANCHESTER NH CLOUDY 37 34 89 N3 29.94F NASHUA NH CLOUDY 37 37 100 NW5 29.96S PORTSMOUTH NH LGT RAIN 36 35 96 N6 29.94F FOG WCI 31 JAFFREY NH CLOUDY 36 35 96 CALM 29.93R FOG KEENE NH CLOUDY 39 37 92 N8 29.96S BURLINGTON VT CLOUDY 36 34 92 N6 30.06S WCI 31 MT. WASHINGTON FOG 27 27 100 NW29 N/A VSB 0 WCI 11 $$ NYZ052-076-290800- EASTERN NEW YORK CITY SKY/WX TMP DP RH WIND PRES REMARKS ALBANY CLOUDY 40 36 86 N8 30.04R NEW YORK CITY CLOUDY 48 43 82 N10 29.95R $$ ANZALL-290800- MARINE OBSERVATIONS STATION/POSITION TIME TEMP WIND PRES VSBY WAVE AIR SEA DIR/SP/G HT/PER (UTC) (F) (DEG/KT/KT) (MB) (MI) (FT/S) BOSTON BUOY 0650 39 40 20/ 12/ 14 1012.7F 3/ 7 BUZZARDS BAY 0600 39 10/ 18/ 19 1012.0F NANTUCKET SOUND 0650 39 1011.0F 1/ 3 MASS BAY-STELLWA 0604 39 39 20/ 10/ 14 1012.6F ISLE OF SHOALS 0600 37 20/ 10/ 12 1014.1F S OF BLOCK IS 0655 40 N/A 4/ 9 $$ ......................KEY......................... SKY/WX - SKY CONDITION/PRESENT WEATHER TMP - TEMPERATURE IN FAHRENHEIT DWPT - DEWPOINT IN FAHRENHEIT RH - RELATIVE HUMIDITY IN PERCENT WIND - DIRECTION AND SPEED IN MPH PRES - MEAN SEA LEVEL PRESSURE IN INCHES OF HG WCI - WIND CHILL INDEX VSB - VISIBILITY IN MILES HX - HEAT INDEX TC - TEMPERATURE IN CELSIUS VRB - VARIABLE WIND DIRECTION N/A - NOT AVAILABLE

USA.gov is the U.S. government's official web portal to all federal, state and local government web resources and services.